Regional Weather Roundup
Issued by NWS

Home | Current Version | Previous Version | Text Only | Print | Product List | Glossary On
Versions: 1 2 3 4 5 6 7 8 9 10 11 12 13 14 15 16 17 18 19 20 21 22 23 24 25 26 27 28 29 30 31 32 33 34 35 36 37 38 39 40 41 42 43 44 45 46 47 48 49 50
000
ASUS43 KBIS 011510
RWRND

NORTH DAKOTA REGIONAL WEATHER ROUNDUP
NATIONAL WEATHER SERVICE BISMARCK ND
1000 AM CDT SUN MAY 01 2016

NOTE: "FAIR" INDICATES FEW OR NO CLOUDS BELOW 12,000 FEET WITH NO
SIGNIFICANT WEATHER AND/OR OBSTRUCTIONS TO VISIBILITY.


NDZ001>003-009>011-017-011600-
NORTHWEST NORTH DAKOTA

CITY           SKY/WX    TMP DP  RH WIND       PRES   REMARKS
WILLISTON      SUNNY     49  31  49 CALM      30.36S
MINOT          SUNNY     55  29  36 W6        30.33F
MINOT AFB      SUNNY     51  31  47 N3        30.32F
$$

NDZ018>021-031>035-040>046-011600-
SOUTHWEST NORTH DAKOTA

CITY           SKY/WX    TMP DP  RH WIND       PRES   REMARKS
BISMARCK       SUNNY     50  33  52 SW5       30.34S
DICKINSON      SUNNY     48  32  53 W3        30.32S
GARRISON         N/A     51  32  48 CALM      30.33F
HETTINGER ARPT SUNNY     50  31  48 VRB3      30.34S
$$

NDZ004>008-012>016-024-026-027-054-011600-
NORTHEAST NORTH DAKOTA

CITY           SKY/WX    TMP DP  RH WIND       PRES   REMARKS
GRAND FORKS    SUNNY     53  31  42 N8        30.30F
GRND FRKS AFB  SUNNY     53  29  39 NE7       30.30F
DEVILS LAKE    SUNNY     53  29  39 VRB3      30.32F
$$

NDZ022-023-025-028>030-036>039-047>053-011600-
SOUTHEAST NORTH DAKOTA

CITY           SKY/WX    TMP DP  RH WIND       PRES   REMARKS
FARGO          SUNNY     53  28  38 VRB3      30.29F
JAMESTOWN      SUNNY     50  31  48 N7        30.30F
$$




USA.gov is the U.S. government's official web portal to all federal, state and local government web resources and services.